Wheeler AAF, HI

8:21 PM HST on June 27, 2017 (GMT -1000)
Wheeler Army Air Field

Weather History for PHHI - February, 2012

Change the Weather History Date:

Wednesday, February 1, 2012

  Actual Average Record
Temperature  
Mean Temperature 67 °F -  
Max Temperature 75 °F 74 °F 82 °F (2001)
Min Temperature 59 °F 61 °F 56 °F (2011)
Cooling Degree Days 2    
Growing Degree Days 17 (Base 50)    
Moisture  
Dew Point 59 °F    
Average Humidity 76    
Maximum Humidity 93    
Minimum Humidity 52    
Precipitation  
Precipitation 0.00 in - - ()
Sea Level Pressure  
Sea Level Pressure 30.00 in    
Wind  
Wind Speed 3 mph (North)    
Max Wind Speed 12 mph    
Max Gust Speed -    
Visibility 10 miles    
Events Rain    
Averages and records for this station are not official NWS values.
T = Trace of Precipitation, MM = Missing Value Source: NWS Daily Summary

Daily Weather History Graph

Daily Weather History Graph

Search for Another Location

Airport or City:

Trip Planner

Search our weather history database for the weather conditions in past years. The results will help you decide how hot, cold, wet, or windy it might be!

Date:

Astronomy

Feb. 01, 2012 Rise Set
Actual Time 7:09 AM HST 6:21 PM HST
Civil Twilight 6:46 AM HST 6:45 PM HST
Nautical Twilight 6:19 AM HST 7:11 PM HST
Astronomical Twilight 5:53 AM HST 7:38 PM HST
Moon 1:09 PM HST (2/1) 1:56 AM HST (2/1)
Length of Visible Light 11h 58m
Length of Day
11h 12m
Waxing Gibbous, 66% of the Moon is Illuminated
Feb 1
Waxing Gibbous
Feb 7
Full
Feb 14
Last Quarter
Feb 21
New
Feb 29
First Quarter

Hourly Weather History & Observations

Time (HST) Temp. Dew Point Humidity Pressure Visibility Wind Dir Wind Speed Gust Speed Precip Events Conditions
12:55 AM 65.1 °F 59.7 °F 83% 30.00 in 10.0 mi Calm Calm - N/A   Partly Cloudy
1:55 AM 61.5 °F 58.8 °F 91% 29.99 in 10.0 mi West 3.5 mph - N/A   Clear
2:55 AM 60.4 °F 58.1 °F 92% 29.97 in 10.0 mi WNW 3.5 mph - N/A   Clear
3:55 AM 60.6 °F 58.1 °F 91% 29.96 in 10.0 mi Calm Calm - N/A   Overcast
4:55 AM 60.4 °F 57.7 °F 91% 29.96 in 10.0 mi Calm Calm - N/A   Partly Cloudy
5:55 AM 59.2 °F 57.0 °F 93% 29.98 in 10.0 mi Calm Calm - N/A   Clear
6:55 AM 59.4 °F 57.2 °F 93% 30.01 in 10.0 mi Calm Calm - N/A   Clear
7:55 AM 60.6 °F 57.9 °F 91% 30.03 in 10.0 mi Calm Calm - N/A   Clear
8:55 AM 68.4 °F 60.6 °F 76% 30.04 in 10.0 mi Calm Calm - N/A   Overcast
9:55 AM 72.0 °F 59.4 °F 64% 30.04 in 10.0 mi Variable 3.5 mph - N/A   Clear
10:55 AM 73.2 °F 56.1 °F 55% 30.03 in 10.0 mi NE 9.2 mph - N/A   Clear
11:55 AM 74.8 °F 56.3 °F 52% 30.02 in 10.0 mi NNE 11.5 mph - N/A   Overcast
12:55 PM 75.2 °F 56.7 °F 52% 29.99 in 10.0 mi NE 9.2 mph - N/A   Partly Cloudy
1:55 PM 74.1 °F 56.8 °F 55% 29.95 in 10.0 mi Calm Calm - N/A   Mostly Cloudy
2:55 PM 75.0 °F 58.3 °F 56% 29.93 in 10.0 mi East 9.2 mph - N/A   Partly Cloudy
3:55 PM 75.2 °F 58.6 °F 56% 29.92 in 10.0 mi East 11.5 mph - N/A   Clear
4:55 PM 73.4 °F 59.2 °F 61% 29.93 in 10.0 mi East 11.5 mph - N/A   Clear
5:55 PM 71.6 °F 59.0 °F 64% 29.95 in 10.0 mi ESE 6.9 mph - N/A   Clear
6:55 PM 69.1 °F 59.4 °F 71% 29.99 in 10.0 mi NE 4.6 mph - N/A   Clear
7:55 PM 69.1 °F 59.4 °F 71% 30.04 in 10.0 mi North 4.6 mph - N/A   Mostly Cloudy
8:14 PM 68.0 °F 59.0 °F 73% 30.04 in 10.0 mi North 3.5 mph - N/A   Light Drizzle
8:23 PM 68.0 °F 60.8 °F 78% 30.05 in 10.0 mi NNW 4.6 mph - N/A   Scattered Clouds
8:55 PM 64.9 °F 60.1 °F 84% 30.05 in 9.0 mi NNW 6.9 mph - 0.00 in Rain Light Rain
9:06 PM 66.2 °F 60.8 °F 83% 30.05 in 10.0 mi NNW 3.5 mph - N/A   Mostly Cloudy
9:55 PM 62.2 °F 59.4 °F 90% 30.06 in 10.0 mi West 5.8 mph - 0.00 in   Clear
10:55 PM 61.7 °F 58.5 °F 89% 30.06 in 10.0 mi WNW 4.6 mph - N/A   Scattered Clouds
11:55 PM 61.5 °F 57.6 °F 87% 30.06 in 10.0 mi NNW 4.6 mph - N/A   Clear